Showing default

DSN-3, 61733

Orbit data source: Space-Track

DSN-3, 61733 is a payload satellite owned by DSN Corp. (JP) in GEO that was launched on Mon, 04 Nov 2024 UTC via a H3-22S launch vehicle from the Tanegashima Space Center (TNSTA). Payload-class satellites include a variety of spacecraft equipped with specific instruments for various scientific and technological missions. These include communications satellites like Starlink; space stations such as the ISS; scientific satellites like the Hubble; Earth observation satellites from companies like Planet Labs, Umbra, and HawkEye 360; GPS; miniature CubeSats for education and research; and military/defense satellites.

Not visible in the next 10 days
Identifier
61733, 2024-198A
Orbit
GEO
Country
Flag of JPJP / JPN
Related business
Manufacturer
MELCO/NECST
Mission
Operational Defense Communications
Bus & Motor
DS-2000, R-4D
Mass
5,000 kg wet, 2,500 kg dry
Launch date (UTC)
2024-11-04 (1 year ago)
Launch vehicle
H3-22S
Launch site
Tanegashima Space Center (TNSTA)
Object type
Payload
Rocket body
Debris
Shape & HBR
Box + 2 Pan, 15.0 m
Radar Cross Section
67.841 m², Large (>1 m²)

Expand to show TLE details & history
Last TLE update: 12 hours ago

TLE from 12 hours ago
0 DSN-3
1 61733U 24198A   26035.72867909 -.00000255  00000-0  00000+0 0  9990
2 61733   0.0396 249.3129 0001765  67.4357 224.4772  1.00269900  4594
Epoch: 2026-02-04T17:29Z
TLE epoch observation values (Epoch: 2026-02-04T17:29:17.873Z)
Latitude
0.00729°
Longitude
144.03171°
Altitude
35,791.945 km
Speed
3.074 km/s
True Right ascension
12h 04m 59s
True Declination
0° 00' 26"
Sunlit
Object was in daylight at epoch
Visualization orbit readout
Latitude
Unknown
Longitude
Unknown
Altitude
Unknown
Speed
Unknown
Apparent Right ascension
Unknown
Apparent Declination
Unknown
Sunlit
N/A
Visualization observer readout
Local Sidereal Time
07:51:42
Azimuth
Unknown
Elevation
Unknown
Doppler factor
Unknown
Orbital elements
Apogee altitude
35,795.636 km
Perigee altitude
35,780.751 km
Semi-major axis
42,166.331 km
Eccentricity
0.00018
Inclination
0.0396°
RAAN
249.3129°
Arg. of periapsis
67.4357°
True anomaly
224.46303°
Mean anomaly
224.4772°
Eccentric anomaly
224.47012°
Mean motion
0.25067 °/min
Orbital period
1,436.18 mins
BSTAR
0
Loading maneuver chart data...
Computing Atmospheric mass density...
Loading historical data...
Loading historical data...
Loading historical data...
Loading historical data...
Loading historical data...
Loading historical data...
Loading historical data...
Other satellites on launch #198 in the year 2024 (2024-11-04 UTC)

Documentation

Showing up to 5 results
|